| Date | Time | Temp. (oF) | Dew Point (oF) | Rel. Hum. (%) | Press. (in.) | Wind Dir. | Wind Speed (mph) | Hourly Rainfall (in.) |
|
|---|---|---|---|---|---|---|---|---|---|
| 1 | 12/24 | 00:00 | 65 | 60 | 86 | 29.74 | SSW | 7 | 0.00 |
| 2 | 12/23 | 23:00 | 65 | 60 | 85 | 29.75 | SSW | 9 | 0.00 |
| 3 | 12/23 | 22:00 | 65 | 59 | 82 | 29.72 | S | 13 | 0.00 |
| 4 | 12/23 | 21:00 | 63 | 57 | 81 | 29.72 | SSW | 8 | 0.02 |
| 5 | 12/23 | 20:00 | 60 | 54 | 83 | 29.75 | SSE | 8 | 0.01 |
| 6 | 12/23 | 19:00 | 59 | 54 | 84 | 29.77 | SSE | 2 | 0.12 |
| 7 | 12/23 | 18:00 | 60 | 55 | 84 | 29.82 | NNW | 5 | 0.04 |
| 8 | 12/23 | 17:00 | 60 | 55 | 84 | 29.82 | SSE | 2 | 0.01 |
| 9 | 12/23 | 16:00 | 59 | 54 | 84 | 29.84 | SE | 5 | 0.03 |
| 10 | 12/23 | 15:00 | 59 | 54 | 84 | 29.86 | SSE | 6 | 0.08 |
| 11 | 12/23 | 14:00 | 59 | 53 | 83 | 29.87 | SSE | 9 | 0.14 |
| 12 | 12/23 | 13:00 | 59 | 53 | 83 | 29.91 | SE | 4 | 0.09 |
| 13 | 12/23 | 12:00 | 58 | 53 | 84 | 29.95 | SSE | 3 | 0.01 |
| 14 | 12/23 | 11:00 | 57 | 52 | 84 | 29.98 | SE | 4 | 0.00 |
| 15 | 12/23 | 10:00 | 56 | 51 | 85 | 30.03 | SSE | 6 | 0.00 |
| 16 | 12/23 | 09:00 | 56 | 51 | 86 | 30.02 | S | 2 | 0.00 |
| 17 | 12/23 | 08:00 | 55 | 50 | 86 | 30.03 | SSE | 4 | 0.01 |
| 18 | 12/23 | 07:00 | 55 | 50 | 86 | 30.03 | SSE | 3 | 0.00 |
| 19 | 12/23 | 06:00 | 54 | 50 | 87 | 30.02 | SE | 1 | 0.00 |
| 20 | 12/23 | 05:00 | 53 | 49 | 87 | 30.01 | ESE | 3 | 0.00 |
| 21 | 12/23 | 04:00 | 53 | 49 | 87 | 30.02 | SE | 0 | 0.00 |
| 22 | 12/23 | 03:00 | 52 | 48 | 88 | 30.02 | SSE | 0 | 0.00 |
| 23 | 12/23 | 02:00 | 52 | 48 | 88 | 30.03 | ESE | 0 | 0.00 |
| 24 | 12/23 | 01:00 | 52 | 48 | 88 | 30.02 | S | 1 | 0.00 |